This is the latest recevied weather packets stored in our database for station/object BMCB-2. If no packets are shown the sender has not sent any weather packets the latest 10 day(s).
| Time | Temp. | Humidity | Pressure | Rain* | Wind** | Luminosity | Snow |
|---|---|---|---|---|---|---|---|
| 1778152262 | 12.22° C | 71% | 1017.3 hPa | 0 mm | - | 288 W/m² | - |
| 1778143260 | 10.56° C | 80% | 1017.1 hPa | 0 mm | - | 566 W/m² | - |
| 1778140262 | 9.44° C | 83% | 1017 hPa | 0 mm | - | 272 W/m² | - |
| 1778139661 | 9.44° C | 84% | 1017 hPa | 0 mm | - | 264 W/m² | - |
| 1778136058 | 8.33° C | 88% | 1016.8 hPa | 0 mm | - | 98 W/m² | - |
| 1778134857 | 8.33° C | 90% | 1016.6 hPa | 0 mm | - | 100 W/m² | - |
| 1778134257 | 8.33° C | 90% | 1016.5 hPa | 0 mm | - | 102 W/m² | - |
| 1778133656 | 7.78° C | 91% | 1016.5 hPa | 0 mm | - | 82 W/m² | - |
| 1778128857 | 7.22° C | 98% | 1015.9 hPa | 0 mm | - | 8 W/m² | - |
| 1778124655 | 7.22° C | 95% | 1015.4 hPa | 0 mm | - | 0 W/m² | - |
| 1778124057 | 7.22° C | 95% | 1015.4 hPa | 0 mm | - | 0 W/m² | - |
| 1778118656 | 7.22° C | 96% | 1014.9 hPa | 0 mm | - | 0 W/m² | - |
| 1778115058 | 7.22° C | 97% | 1014.8 hPa | 0 mm | - | 0 W/m² | - |
| 1778113256 | 7.22° C | 97% | 1014.7 hPa | 0 mm | - | 0 W/m² | - |
| 1778109063 | 7.22° C | 95% | 1014.4 hPa | 0 mm | - | 0 W/m² | - |
| 1778106064 | 6.67° C | 95% | 1014 hPa | 0 mm | - | 0 W/m² | - |
| 1778103067 | 6.67° C | 93% | 1013.7 hPa | 0 mm | - | 0 W/m² | - |
| 1778102468 | 6.67° C | 92% | 1013.5 hPa | 0 mm | - | 0 W/m² | - |
| 1778095270 | 10° C | 86% | 1012.2 hPa | 0 mm | - | 0 W/m² | - |
| 1778094666 | 10° C | 86% | 1012.1 hPa | 0 mm | - | 2 W/m² | - |
| 1778091668 | 10.56° C | 88% | 1011.6 hPa | 0 mm | - | 16 W/m² | - |
| 1778089263 | 10.56° C | 87% | 1011.2 hPa | 0 mm | - | 24 W/m² | - |
| 1778088660 | 10.56° C | 86% | 1011 hPa | 0 mm | - | 44 W/m² | - |
| 1778083258 | 11.67° C | 80% | 1010.6 hPa | 0 mm | - | 160 W/m² | - |
| 1778065257 | 8.89° C | 99% | 1010.6 hPa | 0.25 mm | - | 256 W/m² | - |
* Rain latest hour (hover to see other rain measurements)
** Current wind speed in m/s (hover to see current wind gust speed)